Wind_Speed
9 9 9 9 10 10 11 11 11 12 11 12 12 12 12 12 13 13 13 13 14 14 13 13 13 13 15 17 17 17 16 16 17 18 18 18 17 14 13 14 16 19 17 17 17 15 14 12 10 6 4 4 3 6 7 7 6 5 6 5 6 8 10 12 10 7 10 14 19 18 16 17 20 22 21 20 19 18 18 16 15 17 16 16 19 22 23 23
9 9 8 8 9 9 10 10 11 11 11 12 12 13 13 12 13 13 13 14 14 14 14 14 13 13 14 15 16 18 17 17 18 17 18 19 17 15 13 12 15 17 17 17 16 14 13 11 9 7 5 3 3 6 6 8 9 6 7 7 5 8 11 12 11 7 10 12 15 18 18 17 17 20 20 20 18 17 17 16 17 20 18 18 20 22 22 22
10 9 9 9 9 9 9 10 10 11 11 12 12 13 13 13 13 13 14 14 14 14 15 14 14 14 13 13 15 17 18 18 18 17 19 20 17 16 14 12 13 14 16 16 14 14 13 10 8 7 4 3 6 7 6 9 9 6 7 6 6 7 8 11 11 6 8 10 12 15 16 17 16 18 19 19 18 16 16 16 20 22 21 22 21 22 23 22
10 10 9 9 9 9 9 9 10 10 10 11 12 12 13 14 13 13 13 14 15 14 15 15 14 14 13 13 13 15 17 16 19 20 19 18 17 17 15 12 11 13 16 16 16 15 14 11 8 7 6 5 8 9 8 10 9 5 5 3 5 6 7 8 10 8 6 10 11 13 14 15 16 17 18 18 16 16 15 15 21 21 21 23 22 22 23 22
9 9 10 9 9 9 9 9 10 10 10 11 12 12 12 13 13 13 13 13 14 14 15 15 14 14 13 13 12 13 13 10 18 23 18 17 17 17 16 14 12 13 15 17 18 18 15 13 9 8 10 9 9 11 10 11 10 4 4 3 3 7 8 5 7 10 3 8 9 12 13 13 15 16 16 16 14 15 16 17 22 20 17 22 22 22 22 22
9 9 9 9 10 10 10 10 10 10 11 12 12 12 12 12 13 13 13 13 13 14 15 14 15 14 13 14 12 12 12 9 17 21 17 17 17 17 17 15 14 14 16 19 20 19 17 15 11 12 12 11 11 12 11 12 12 6 3 4 2 6 9 4 6 9 3 5 8 11 12 13 15 16 15 15 13 14 16 17 22 20 17 20 21 22 22 21
9 9 8 8 8 9 10 10 11 11 11 12 12 12 12 12 12 12 13 12 13 13 14 14 15 14 13 14 12 12 13 14 19 18 16 18 17 16 18 17 15 15 16 19 21 19 18 15 13 14 12 11 11 11 12 12 12 9 4 3 1 4 8 3 7 7 4 2 7 11 11 12 14 16 16 16 14 15 17 18 20 19 18 20 20 20 21 20
10 10 10 9 8 8 9 9 10 11 12 13 13 13 12 12 12 12 12 12 13 13 13 14 14 14 14 13 12 12 10 14 23 20 15 16 17 17 17 18 17 15 15 18 21 19 17 15 14 14 13 12 10 9 11 11 12 12 8 3 1 3 4 2 6 7 5 4 5 11 10 11 13 15 16 16 14 15 17 19 22 21 19 20 20 20 20 21
13 12 11 10 10 9 8 8 9 10 12 13 13 13 13 13 12 12 13 12 13 12 13 14 14 14 13 13 12 9 8 16 24 21 16 15 16 18 17 17 17 16 14 16 19 19 16 15 14 14 14 12 10 10 11 12 13 11 9 9 3 3 1 1 4 9 5 5 4 10 10 11 14 14 15 15 14 16 17 19 21 21 20 20 21 21 21 21
15 14 12 11 11 10 9 8 8 8 10 11 13 13 13 13 13 13 12 12 13 12 13 13 14 14 13 13 10 7 10 18 22 18 17 16 15 17 17 17 17 16 14 15 18 20 17 13 12 12 13 13 12 11 11 11 11 9 8 10 6 2 2 3 4 9 8 5 4 8 11 12 15 15 14 15 16 17 19 21 19 20 23 22 20 20 20 20
16 15 14 12 11 10 9 9 8 7 8 10 11 11 12 13 13 13 13 13 13 12 13 12 13 14 13 14 12 10 12 17 20 17 16 17 16 16 17 17 17 17 15 14 17 19 16 12 10 10 11 13 12 9 11 11 10 9 8 8 9 7 5 5 5 9 10 5 4 8 12 13 15 15 13 15 17 19 21 23 21 21 24 24 22 21 20 19
17 16 15 13 11 10 9 9 8 7 8 9 9 10 10 11 12 13 13 13 12 12 12 11 13 13 14 14 13 15 15 15 21 17 13 17 17 16 16 17 17 18 16 13 14 17 16 13 10 12 11 9 10 9 9 11 11 11 9 8 9 8 8 9 7 10 12 7 5 8 12 14 15 14 12 16 18 19 22 24 24 22 24 26 23 22 21 20
18 17 16 14 12 11 9 9 8 8 8 8 8 8 8 10 11 12 13 12 12 12 11 11 12 12 14 12 12 17 17 17 20 16 12 15 17 17 17 17 18 18 18 13 11 14 16 15 12 14 13 10 11 9 8 9 11 12 12 10 9 8 10 10 9 11 12 8 5 5 10 14 17 15 13 17 19 20 23 24 25 24 24 25 25 23 22 23
19 18 16 15 14 12 10 8 8 8 7 7 7 7 7 8 9 10 12 11 12 12 11 11 11 12 14 13 13 17 16 17 19 14 13 13 15 17 16 17 18 19 19 15 10 13 16 16 13 15 16 14 14 12 11 9 10 12 13 12 11 9 8 11 11 12 10 7 6 6 8 11 17 18 16 17 20 21 23 24 25 24 24 25 25 23 23 24
17 17 16 15 14 13 11 9 8 7 7 6 5 5 6 6 7 8 10 10 11 11 11 10 10 12 12 10 14 16 14 15 16 13 12 11 13 16 16 17 18 19 19 17 12 12 14 14 15 17 15 14 15 13 11 10 12 13 13 13 14 11 9 11 12 10 10 8 7 7 4 6 15 20 19 19 21 23 23 25 27 25 25 25 25 24 23 23
16 16 15 15 14 13 12 10 9 7 7 5 4 4 5 6 6 6 8 9 9 9 10 9 10 11 10 9 13 16 13 11 13 13 10 9 10 12 14 16 18 20 19 18 13 10 15 17 17 18 15 11 13 13 11 11 13 15 15 14 13 12 11 10 9 8 11 11 9 7 4 5 13 20 23 22 22 25 25 26 28 27 26 25 24 24 24 23
16 15 15 14 13 13 12 10 9 7 7 5 4 4 4 6 6 6 6 7 7 7 8 7 9 9 10 11 14 15 11 9 11 11 9 9 9 10 14 16 17 19 18 17 15 13 19 23 19 17 16 14 14 13 13 14 14 16 16 15 13 12 12 11 9 8 9 10 8 8 5 6 10 18 25 24 24 26 26 26 28 29 28 26 24 24 24 23
16 16 15 14 13 12 11 10 9 8 7 6 5 4 5 6 7 8 6 5 5 4 3 5 6 3 6 10 10 11 9 9 11 10 9 10 11 12 14 15 16 18 17 16 18 19 18 20 17 14 16 18 16 16 17 16 14 15 16 15 14 12 13 14 11 9 9 9 8 8 6 5 9 15 20 21 24 25 25 25 26 28 30 27 24 23 24 23
16 17 17 16 14 13 11 10 9 8 8 7 6 6 5 5 8 11 7 4 4 6 3 3 7 4 3 4 3 6 8 12 11 8 10 9 11 14 12 14 15 16 17 15 18 19 15 15 17 16 18 20 19 19 20 19 15 14 15 15 13 13 13 14 11 9 10 11 8 7 6 5 9 14 16 19 24 25 24 25 25 28 31 30 26 24 24 24
17 17 18 17 16 14 12 10 8 8 8 8 7 6 4 5 10 11 5 1 3 10 5 3 9 6 2 3 2 7 9 13 10 8 12 12 12 14 13 14 15 16 17 15 16 16 14 16 19 20 19 18 19 20 20 21 20 17 16 15 14 15 13 11 11 10 10 11 9 6 6 5 6 10 14 20 24 24 25 26 26 27 29 30 28 26 24 23
17 18 19 19 18 16 14 11 9 8 7 7 6 4 1 5 5 5 5 4 3 9 9 5 8 8 5 4 7 11 9 9 10 10 13 13 12 13 15 15 15 17 18 16 13 13 16 19 20 20 19 17 17 19 20 21 22 21 19 17 16 15 12 9 12 12 10 11 10 7 7 7 7 9 14 20 24 25 27 27 27 27 27 27 28 28 25 24
18 18 19 18 18 17 15 13 10 7 6 5 3 4 1 4 5 7 9 7 5 9 10 8 11 12 10 8 8 10 10 10 11 12 13 13 14 14 16 16 16 17 17 17 16 15 19 22 19 17 17 18 17 17 20 21 22 21 19 17 18 17 11 11 11 10 9 11 10 8 10 9 9 10 12 15 21 24 25 26 26 26 25 25 27 28 25 24
17 17 17 17 16 15 14 13 11 9 7 3 4 4 4 5 7 6 8 5 4 9 10 11 13 13 14 13 10 10 11 12 12 14 15 14 15 14 14 15 16 16 16 20 20 18 19 20 18 17 16 18 18 17 18 21 22 19 17 16 18 16 11 14 11 10 10 10 9 9 11 11 11 12 10 10 16 21 23 24 25 24 22 21 24 27 27 26
15 15 15 15 14 13 11 10 10 9 6 3 3 4 5 5 4 5 7 5 7 10 10 11 12 13 15 14 13 12 11 12 13 15 17 16 16 14 13 14 16 17 18 20 21 19 18 16 16 19 18 17 18 18 17 18 20 19 18 18 16 11 10 12 10 9 11 10 10 11 11 12 15 16 14 12 13 18 21 23 22 20 20 20 22 27 29 28
13 13 13 12 12 11 9 8 8 9 10 7 5 7 5 3 3 3 3 4 7 8 8 9 10 11 13 11 11 12 11 13 13 16 19 17 16 15 13 13 16 18 18 18 21 21 18 15 15 19 20 19 18 18 17 17 19 19 19 20 17 11 12 14 9 7 11 12 14 15 11 10 16 18 18 15 12 17 19 19 19 18 20 20 21 25 29 28
11 11 11 10 11 10 9 9 7 12 17 8 4 8 6 3 3 2 2 7 8 8 6 7 8 9 13 13 10 9 11 14 13 16 20 16 16 17 13 13 15 16 17 16 19 21 19 16 16 18 20 20 20 19 17 17 19 19 18 20 20 14 12 17 13 10 12 12 15 18 10 9 16 18 18 17 14 17 17 16 17 18 20 21 21 25 28 27
9 9 10 10 11 10 10 9 4 10 11 7 9 9 5 4 4 3 3 8 6 7 7 7 7 7 11 12 11 11 10 13 14 17 19 14 15 19 16 15 15 15 16 16 17 19 18 18 17 17 19 21 22 20 17 17 19 18 15 17 20 19 14 13 13 14 14 13 13 18 14 10 20 21 16 16 17 17 16 15 17 17 19 21 22 25 28 26
8 9 9 9 10 9 9 10 5 5 2 11 9 5 3 3 0 3 4 5 4 7 7 8 7 6 7 9 13 14 7 8 14 18 17 12 15 20 16 16 16 15 16 17 18 16 16 20 19 16 18 19 20 19 16 15 19 18 15 15 19 20 17 13 14 17 18 16 12 17 16 9 17 22 16 14 19 20 17 16 17 16 17 20 22 26 28 26
7 8 9 8 9 8 7 9 8 5 2 5 3 2 1 2 4 2 5 4 2 5 6 6 8 7 7 8 15 15 8 7 11 14 13 11 17 22 14 15 15 14 17 19 19 17 16 20 20 18 18 16 15 17 17 15 17 18 16 16 18 19 19 15 13 15 16 15 11 15 19 10 11 19 17 14 17 21 20 18 17 16 17 19 22 23 24 24
6 7 8 8 8 7 4 7 10 8 6 6 4 3 4 6 3 4 5 2 0 5 5 5 8 9 9 10 15 15 10 8 7 9 12 11 16 18 12 15 18 15 18 22 20 18 17 16 17 18 18 17 15 15 18 17 14 17 16 14 12 15 19 19 17 15 12 11 14 16 18 13 9 15 19 16 15 16 19 19 17 16 17 20 22 21 21 23
5 5 6 7 9 10 8 6 7 8 8 6 6 8 7 4 4 6 3 3 3 2 3 5 7 10 11 12 15 16 14 11 7 9 12 11 15 17 12 14 19 13 14 23 21 18 17 15 16 17 15 16 17 16 18 16 14 17 18 13 11 11 12 14 17 16 10 8 15 18 18 15 7 13 20 17 15 14 15 16 15 17 19 19 20 20 20 21
5 4 5 6 8 10 10 6 2 4 7 6 8 8 7 7 6 6 2 6 6 1 2 6 9 9 11 14 15 16 17 14 10 9 11 12 14 18 15 14 17 10 11 20 20 18 19 19 18 17 15 16 18 18 18 17 16 18 18 17 15 11 8 8 11 14 11 11 16 18 20 12 3 16 20 16 14 14 13 14 13 15 18 19 20 20 20 20
5 4 4 4 5 7 8 7 5 6 7 6 8 6 6 5 4 4 1 3 1 3 1 4 6 7 11 15 15 15 15 14 13 12 13 13 13 16 17 16 18 14 11 14 18 19 20 19 20 19 17 19 20 20 20 20 19 19 19 18 16 11 7 7 9 10 11 14 17 19 18 11 14 15 15 16 14 11 11 13 12 12 14 16 20 20 19 21
6 6 5 5 4 4 5 7 7 5 5 6 7 7 6 4 4 2 1 2 2 3 1 3 6 9 12 14 12 11 13 12 13 13 13 14 13 15 17 18 19 16 11 12 16 19 20 18 21 22 18 17 21 21 19 19 20 21 20 18 18 16 11 9 9 9 11 14 17 19 14 12 18 15 13 15 14 11 11 10 9 11 13 13 17 20 20 20
6 4 5 7 7 4 3 5 6 4 6 6 4 6 7 7 5 4 4 3 3 2 1 3 5 9 11 11 9 10 10 10 11 13 14 16 13 13 17 18 18 14 12 13 15 16 17 18 20 23 19 15 20 21 17 16 20 22 21 19 20 21 17 13 12 15 16 13 15 14 5 12 21 18 15 16 14 15 15 13 10 10 13 15 15 18 20 19
6 4 5 11 11 7 6 4 4 3 5 7 6 5 5 7 6 7 5 3 4 3 1 4 7 9 9 8 9 11 9 7 10 13 15 15 7 3 7 10 11 10 8 8 10 11 15 20 19 23 21 15 19 22 17 16 17 18 23 23 19 19 19 16 12 16 17 12 12 12 14 19 23 17 14 17 17 17 17 16 14 10 12 16 14 15 17 18
7 4 5 9 7 6 8 4 2 2 4 6 5 5 5 5 4 6 5 3 5 4 1 3 6 8 9 9 10 13 11 7 10 13 11 8 3 2 3 1 3 6 4 5 4 7 13 18 13 20 21 14 17 22 19 19 15 12 20 24 19 18 20 18 12 12 13 10 11 17 23 21 19 16 16 19 18 16 16 15 15 13 11 13 14 15 15 15
9 6 1 4 3 7 8 3 1 3 4 6 5 6 5 4 4 5 5 3 2 3 4 2 4 4 3 6 9 12 12 9 10 14 11 5 3 3 3 5 4 4 5 5 6 9 13 12 6 13 15 12 15 20 21 23 21 13 12 18 19 18 19 19 14 8 8 8 10 18 26 20 18 20 21 20 17 16 16 14 14 15 14 12 12 13 13 15
10 12 3 4 4 9 7 1 1 2 5 8 7 6 4 4 4 5 5 2 2 5 8 5 4 5 2 5 7 7 10 9 8 10 8 6 6 2 4 8 5 5 7 7 9 9 6 6 7 11 15 14 15 18 19 21 24 19 11 11 18 17 16 20 16 11 9 8 8 14 19 13 16 22 21 18 17 16 15 13 13 14 14 15 15 14 14 14
9 10 4 4 5 11 6 4 2 7 10 9 6 5 3 3 5 5 4 3 2 3 5 4 5 6 1 1 2 3 5 6 6 5 5 7 7 5 5 8 8 7 8 8 11 8 5 8 10 11 17 18 16 19 21 21 23 22 15 13 18 19 18 19 20 19 14 8 8 9 8 10 15 19 17 16 15 14 14 12 12 11 11 14 16 16 16 15
9 5 6 7 10 12 5 3 7 9 9 7 2 3 4 2 4 6 4 4 3 1 2 3 1 1 1 3 3 2 3 2 3 3 4 6 6 5 5 7 9 9 9 9 11 9 8 9 7 7 16 20 18 20 22 20 21 22 20 16 17 22 21 14 13 19 19 15 11 6 9 10 13 15 14 15 13 12 12 12 12 10 7 10 12 13 15 17
11 5 7 11 12 6 1 5 8 5 4 5 2 3 4 2 4 5 2 3 3 1 2 1 1 2 2 2 3 2 2 0 2 1 1 2 3 6 6 8 8 8 9 9 9 8 9 7 8 10 12 15 17 18 20 17 14 16 20 20 20 22 22 15 10 14 21 19 7 12 14 10 11 12 14 15 13 11 11 11 12 10 7 8 9 9 10 12
9 6 9 10 2 4 2 6 5 2 2 4 3 3 3 2 4 5 2 2 3 2 1 1 1 0 3 4 2 0 1 2 1 2 1 2 2 9 11 10 6 7 7 6 5 6 10 9 10 10 7 8 11 14 16 14 11 12 16 20 23 19 13 12 13 10 14 15 5 12 9 9 13 13 13 14 12 11 10 10 11 10 8 7 8 9 8 8
5 3 7 7 4 5 4 5 3 2 2 3 2 1 2 1 2 3 3 3 3 3 3 2 1 2 1 4 5 4 3 5 2 4 4 3 5 8 9 8 4 5 3 3 3 3 5 8 11 7 5 8 11 11 13 15 14 16 17 17 20 15 6 9 8 6 11 12 3 10 5 10 15 13 13 14 13 12 10 9 10 10 9 8 8 9 8 7
3 1 3 5 5 4 4 4 4 3 2 2 2 3 2 3 3 1 1 3 3 3 3 1 1 1 1 2 5 5 5 6 4 6 6 6 8 9 8 5 6 5 5 5 4 3 1 5 10 8 5 7 6 4 7 13 16 18 21 20 16 12 7 11 10 5 12 12 5 13 11 13 14 12 14 15 14 13 11 10 9 8 9 10 10 10 9 9
5 4 2 2 4 3 3 4 5 4 2 1 1 2 2 4 5 2 0 2 2 1 2 1 0 1 2 3 4 5 5 7 5 5 7 6 8 10 8 6 5 6 5 5 7 5 3 4 6 6 6 5 4 5 5 8 17 19 22 21 12 8 7 7 9 6 5 4 7 14 15 18 17 15 14 15 13 12 12 12 10 9 9 11 11 10 10 10
7 5 3 2 3 2 4 6 5 5 4 2 1 3 3 2 4 3 3 3 1 1 1 2 0 2 3 4 6 6 6 7 6 5 5 6 8 9 9 8 6 4 2 3 5 3 3 7 7 7 8 3 3 5 6 5 10 16 25 24 12 9 8 7 11 7 5 3 7 13 14 18 20 17 15 16 14 12 12 11 10 7 7 9 10 11 11 9
7 5 2 0 2 2 3 5 5 5 5 3 2 3 3 2 3 4 6 5 1 1 1 1 0 1 2 2 5 6 5 5 5 6 5 4 5 6 6 8 10 8 3 4 4 3 4 7 6 7 12 10 5 6 8 7 11 13 24 26 13 10 11 13 16 10 7 4 8 15 14 16 20 19 17 16 14 14 12 11 13 11 7 8 9 10 11 10
4 2 0 1 2 2 2 3 4 5 5 5 4 4 4 3 3 3 6 6 3 3 3 2 2 1 1 1 1 3 5 3 3 6 6 3 3 4 4 5 8 10 7 4 5 5 6 6 5 5 8 11 10 8 8 7 9 8 10 15 6 6 10 13 15 10 4 2 9 15 17 17 19 19 18 17 15 14 12 12 15 13 9 8 8 9 11 11
6 6 3 3 2 1 1 2 1 2 4 6 5 4 4 4 4 4 6 6 5 5 4 4 4 4 4 3 2 4 5 3 0 4 6 3 3 5 4 2 3 7 10 8 6 7 6 5 5 7 9 8 10 9 9 9 7 5 4 7 5 7 8 8 8 5 3 6 9 14 19 20 17 16 17 16 13 12 12 13 15 14 10 7 6 9 10 9
9 10 9 6 1 4 1 2 1 1 2 3 3 3 3 3 3 4 5 6 7 6 4 5 4 4 4 5 5 5 3 2 2 1 4 1 2 3 3 5 4 4 6 8 8 8 6 5 5 6 9 10 9 9 10 10 10 10 9 9 9 9 10 9 9 6 4 7 12 18 22 22 19 16 16 14 10 9 10 11 13 14 10 6 5 8 9 7
6 9 11 9 1 6 1 0 2 1 1 1 1 2 3 2 1 1 2 3 4 5 5 4 2 2 3 3 3 3 2 2 1 1 4 3 2 2 3 6 6 3 2 4 7 7 5 5 5 5 9 13 11 9 8 8 9 11 14 14 13 12 10 11 11 7 4 6 13 19 21 21 19 16 15 13 10 9 7 7 10 11 7 4 6 8 8 6
Wind_Direction
325 317 309 305 302 300 297 292 285 279 274 271 268 266 264 263 262 261 260 260 259 258 255 255 252 247 240 236 236 237 238 238 235 232 230 231 230 227 221 213 213 217 215 214 216 217 220 219 219 223 229 243 271 264 269 279 266 276 300 315 341 356 5 14 34 70 103 133 145 143 148 148 145 148 151 153 149 141 141 139 137 136 146 163 158 153 154 152
330 325 320 313 304 301 298 295 291 285 280 275 271 267 264 262 261 260 259 257 257 258 257 254 252 250 244 239 236 236 238 239 238 235 235 234 231 230 223 213 214 217 215 215 215 211 213 215 210 213 224 219 257 285 280 276 274 268 275 290 348 16 10 15 31 67 110 132 141 137 142 144 144 148 153 155 147 143 143 138 136 139 156 169 160 156 156 153
326 324 322 317 311 305 298 295 291 288 286 281 276 271 268 265 261 260 259 257 255 254 256 255 253 251 248 243 237 236 237 239 240 236 237 234 230 231 225 217 215 213 212 213 210 205 202 201 202 204 213 209 228 253 251 254 268 270 271 300 2 16 4 13 24 48 111 129 137 138 147 144 142 147 154 157 150 148 146 142 143 149 164 165 160 160 157 155
319 317 314 312 310 308 303 298 292 288 286 283 281 276 272 270 266 263 260 259 257 254 255 254 254 252 250 246 239 236 235 242 244 235 234 235 230 230 227 219 215 212 208 206 204 200 191 185 195 195 197 215 227 236 238 248 259 265 265 306 3 8 2 7 17 23 102 131 137 142 150 145 143 150 153 155 154 155 150 146 148 156 163 158 159 161 157 157
319 313 308 306 303 303 302 300 297 292 287 282 280 278 276 274 271 267 263 261 258 255 254 254 254 252 250 248 239 235 231 239 246 235 229 234 230 226 227 219 215 213 203 202 202 196 183 175 192 204 205 216 231 241 243 253 259 258 273 303 352 26 20 347 6 10 60 135 146 149 148 145 147 153 153 151 152 154 150 147 151 157 160 156 159 160 159 159
328 320 313 307 301 299 295 293 293 292 290 286 282 279 277 275 273 271 266 262 259 255 253 252 253 251 251 248 241 236 217 211 243 237 224 229 229 224 225 219 215 213 202 199 199 192 180 172 194 214 215 219 228 243 246 256 259 246 285 322 301 41 38 311 325 355 4 136 156 156 147 148 153 157 156 154 152 152 151 147 150 157 161 156 158 162 161 160
338 332 327 318 310 303 295 291 288 287 288 286 285 283 279 277 274 271 268 264 260 255 251 251 251 250 250 247 242 237 218 218 242 241 227 227 228 225 223 219 214 213 206 201 199 189 179 178 199 214 221 229 233 246 248 254 262 253 269 355 294 60 56 287 293 335 1 89 167 165 157 160 160 159 159 163 159 154 158 151 149 160 164 157 157 162 162 161
343 339 337 332 327 317 305 296 287 284 283 282 283 283 282 280 275 273 269 265 261 257 252 249 248 247 247 246 240 235 225 235 241 236 233 229 225 226 222 219 215 215 211 204 202 189 180 187 202 214 222 228 232 251 251 247 258 258 254 282 292 81 72 261 291 306 341 12 187 172 167 171 168 164 162 168 161 155 164 159 157 164 165 159 158 162 164 166
343 340 338 336 335 330 322 310 297 287 280 278 277 278 280 280 278 275 270 267 263 257 252 248 246 245 243 243 236 225 222 240 241 232 232 230 224 226 222 219 216 215 214 207 203 190 185 196 203 212 220 228 242 259 258 244 251 258 244 249 265 69 64 208 272 274 284 330 245 179 171 174 172 168 166 171 162 159 165 160 159 164 164 160 160 166 169 169
339 337 335 335 334 332 328 319 308 293 282 277 274 272 273 274 277 276 272 269 264 258 254 246 244 241 239 240 223 208 233 245 247 234 227 230 224 223 221 217 214 212 212 209 204 193 188 199 206 214 224 243 257 262 261 243 242 254 243 241 252 299 273 186 200 243 254 293 257 190 180 175 173 173 173 176 169 165 161 155 160 165 163 161 164 170 170 170
337 335 332 330 328 327 324 320 312 295 283 278 276 272 269 268 269 272 273 270 265 261 255 245 243 238 235 237 209 203 238 247 248 235 226 228 222 221 219 215 212 208 209 209 204 194 187 190 206 221 232 250 250 255 267 250 239 246 247 245 246 257 241 202 200 231 250 255 186 190 188 175 176 180 182 181 175 170 160 156 162 165 164 162 168 173 167 166
337 334 332 329 325 319 315 314 311 298 282 277 280 278 273 268 265 266 268 270 267 261 255 247 243 234 231 236 217 220 235 240 247 243 231 230 221 218 217 212 210 207 204 205 202 194 188 192 210 219 224 249 239 242 264 242 237 241 241 247 243 245 233 219 203 209 236 236 174 181 188 184 186 186 185 181 179 173 163 160 161 165 168 162 172 178 163 162
337 335 332 328 324 317 309 305 306 303 285 276 280 283 282 275 267 263 263 266 267 262 257 246 240 234 231 228 220 231 238 242 251 250 238 233 222 216 215 210 207 205 200 193 199 200 195 199 216 222 227 249 237 245 273 236 231 235 234 244 242 243 232 214 201 209 228 234 209 187 188 195 195 191 189 180 180 177 166 162 161 168 171 164 177 181 163 165
338 337 334 330 325 319 310 299 297 300 287 276 279 289 294 287 275 266 260 260 264 263 259 248 239 235 229 224 231 240 243 245 249 251 243 232 221 216 212 208 203 204 199 180 193 217 205 203 219 229 232 238 232 253 283 250 232 232 231 239 232 234 219 188 196 216 219 208 214 216 202 205 200 194 192 182 181 180 170 165 165 172 171 169 182 179 166 175
344 344 341 336 331 324 315 304 297 296 290 280 279 296 306 305 292 273 263 259 259 260 260 250 236 234 230 233 252 251 245 248 250 250 243 228 220 215 208 208 202 200 197 180 189 220 210 209 228 233 232 231 230 249 271 250 232 227 227 232 222 219 211 185 190 217 229 214 209 217 205 208 205 197 192 187 183 182 178 171 168 174 173 175 184 175 172 181
350 349 347 343 338 334 326 315 305 298 296 285 282 305 315 317 309 287 269 260 258 256 256 248 236 231 219 225 247 249 244 241 244 243 232 215 216 214 205 204 198 196 197 186 185 210 213 213 221 225 226 231 234 238 251 246 228 219 222 231 223 208 210 206 189 204 241 239 214 207 196 190 197 194 190 187 185 182 182 178 174 176 175 179 184 175 179 183
350 349 348 345 341 338 334 327 317 306 302 296 293 300 310 320 324 314 285 264 259 252 249 243 236 227 224 238 242 247 250 222 220 228 212 190 187 206 206 197 194 195 194 189 189 203 217 217 214 219 220 222 229 227 233 236 221 213 215 228 235 210 203 216 196 185 227 242 214 187 191 206 195 192 187 182 185 183 183 185 182 179 173 179 185 177 183 186
346 346 344 342 339 336 334 330 323 313 306 302 296 290 303 320 338 338 314 279 257 226 246 245 218 214 264 261 240 244 250 205 204 212 198 181 176 197 204 192 191 195 191 195 203 207 217 221 216 222 223 219 222 218 222 227 218 213 209 217 234 219 204 211 208 195 202 219 209 174 177 200 180 187 188 182 186 185 184 188 189 184 173 177 185 180 186 189
346 345 343 342 338 334 332 328 321 313 304 294 286 279 296 335 2 351 331 289 231 148 70 267 187 135 353 321 264 250 229 204 205 197 187 182 187 193 188 184 189 193 191 199 214 214 215 220 214 218 222 219 219 217 221 227 226 228 220 216 224 222 215 214 212 206 201 209 212 187 186 190 168 177 186 189 190 186 187 191 194 190 177 177 180 181 191 190
348 347 345 343 340 339 336 329 318 309 296 285 280 267 292 4 9 353 344 356 183 166 151 231 187 162 63 32 197 181 179 202 205 182 184 186 193 190 179 184 189 192 195 199 216 218 210 214 216 218 220 218 220 223 227 233 238 245 244 239 236 225 218 214 205 198 201 202 202 203 198 190 179 173 175 186 189 188 194 195 195 193 183 181 177 177 193 192
349 349 348 345 342 342 341 338 332 320 297 285 276 237 304 360 344 304 275 313 288 212 214 221 203 205 194 188 210 189 175 200 196 189 195 189 189 188 184 187 188 197 201 198 211 214 209 218 220 220 222 221 225 228 230 237 244 251 256 258 258 238 209 192 189 187 201 203 202 211 189 182 197 180 171 183 188 192 199 196 194 195 188 185 177 175 190 192
352 352 349 345 344 341 343 345 346 338 313 291 232 192 343 321 235 239 264 286 296 257 246 228 219 222 204 188 207 201 198 209 198 198 202 187 183 189 193 194 194 202 204 200 207 208 211 222 223 221 225 225 229 233 232 237 241 250 257 256 263 257 211 183 185 179 194 206 211 204 181 183 195 181 169 180 191 196 200 196 194 196 188 184 181 177 184 189
356 355 350 348 345 342 345 349 354 358 345 311 200 197 323 283 222 244 266 260 265 256 249 238 228 222 214 208 210 198 197 211 204 199 201 188 181 187 197 203 202 205 207 205 208 210 215 225 223 218 225 226 230 233 230 234 237 243 249 243 256 258 206 185 192 182 186 204 223 208 186 185 177 170 165 167 186 193 194 194 194 195 190 190 191 184 183 187
1 358 353 350 348 351 353 355 5 10 8 353 270 282 298 269 240 257 250 251 269 246 234 239 231 224 219 215 230 227 207 210 206 201 206 192 183 193 200 206 207 209 213 210 212 219 223 227 223 219 223 224 227 231 229 230 231 233 237 233 238 237 199 195 202 195 197 210 220 193 170 182 176 166 164 160 172 184 190 193 193 196 195 197 199 194 189 189
6 1 359 355 356 1 358 5 24 24 24 29 346 317 294 270 275 266 248 279 267 224 221 231 219 223 214 200 228 232 209 214 209 203 212 200 185 196 204 206 211 213 216 213 215 226 230 228 222 218 221 223 225 229 227 225 224 226 230 228 228 220 198 201 206 207 207 208 206 188 162 183 187 172 167 170 169 174 185 193 194 198 198 198 200 197 194 192
10 8 7 3 6 8 7 20 49 38 23 14 316 308 308 331 314 325 348 294 252 205 207 212 200 209 206 200 211 206 207 221 209 202 218 214 189 196 209 209 213 218 218 215 218 226 229 227 225 219 218 220 222 226 225 221 222 224 223 223 232 238 213 206 210 219 223 217 205 203 198 173 178 176 168 170 172 171 181 192 195 198 198 198 197 193 194 195
13 16 15 14 15 12 21 29 61 51 20 291 275 306 317 334 326 48 359 286 231 186 191 193 210 217 208 213 201 187 203 208 195 198 217 222 197 197 212 213 214 222 221 217 218 223 224 225 225 220 217 218 219 221 222 218 220 225 220 215 227 238 235 229 226 222 235 242 211 206 216 173 167 179 171 165 176 180 186 190 189 195 200 200 196 194 197 196
16 22 20 21 20 15 28 30 24 46 321 256 273 311 309 305 343 82 328 297 132 152 183 188 214 203 191 209 195 192 201 187 189 192 202 221 197 189 209 221 216 221 222 221 222 219 221 224 222 215 218 221 216 215 215 214 219 223 220 218 226 231 233 242 236 221 231 250 224 200 214 192 155 167 171 169 178 182 186 192 190 194 202 202 198 198 198 196
18 25 25 26 25 19 31 37 31 34 320 283 312 325 314 81 95 74 288 284 135 184 198 205 217 185 172 195 193 200 208 193 199 189 192 219 192 186 217 228 215 230 231 226 230 225 215 221 222 213 217 221 211 212 216 216 221 221 227 242 238 221 216 226 230 220 229 251 241 205 207 203 136 152 168 171 176 183 189 194 195 196 202 206 203 201 203 202
17 24 24 24 26 20 30 47 32 21 12 6 27 73 88 93 65 300 253 229 181 185 188 235 228 191 185 194 195 204 209 201 201 185 191 210 195 198 233 220 214 251 242 221 233 234 217 220 220 210 213 218 215 215 217 220 223 218 226 249 242 209 204 214 220 223 233 243 241 229 211 203 169 164 177 179 180 190 195 197 200 202 204 208 208 205 204 203
5 22 24 25 31 27 36 43 4 4 29 35 72 85 63 38 289 271 241 285 304 148 189 236 204 189 196 196 192 198 203 195 182 183 188 199 204 212 239 220 214 255 238 210 222 229 218 221 215 207 212 216 220 221 218 219 219 217 218 220 218 210 206 217 223 228 241 235 235 236 224 227 219 158 167 179 184 182 181 188 201 207 205 204 207 209 205 202
343 5 15 23 38 37 43 54 3 37 63 65 78 71 22 351 280 241 215 272 271 91 217 203 174 183 196 199 194 192 202 198 185 196 196 198 206 207 222 219 205 225 221 204 215 222 223 227 214 212 221 214 216 218 213 212 212 218 220 210 206 204 197 217 226 223 227 232 236 233 224 230 85 119 143 153 163 168 164 168 184 199 201 199 202 206 204 203
333 345 355 11 42 48 45 49 57 68 76 77 66 34 356 355 288 246 184 251 278 41 304 196 187 197 193 202 199 189 205 209 195 203 203 199 204 198 208 214 203 215 230 211 211 211 217 225 215 211 214 214 223 221 206 202 205 211 213 207 205 202 195 209 220 219 221 227 234 232 217 175 106 114 140 137 140 163 171 169 172 178 187 197 200 202 206 207
327 339 349 341 1 46 51 55 63 61 51 58 48 8 337 305 277 285 356 311 1 14 249 205 212 208 198 205 202 186 204 212 196 198 201 197 203 199 202 213 211 220 245 231 217 213 210 214 214 211 209 215 226 226 211 202 202 205 210 212 208 209 219 214 207 219 223 223 225 225 217 162 132 127 135 136 139 153 160 166 173 172 174 187 195 197 204 211
328 330 350 349 356 12 24 58 62 44 32 23 336 335 339 305 301 355 5 2 22 32 200 216 198 194 206 210 199 195 208 212 198 203 207 197 202 208 199 201 204 216 249 238 225 233 230 223 217 212 213 215 213 219 224 215 205 203 211 225 218 209 223 228 217 223 223 221 218 210 162 123 133 128 126 131 132 133 131 134 147 163 171 175 189 201 207 213
329 305 340 1 12 1 332 2 35 15 26 12 318 304 307 289 311 353 357 355 336 319 223 199 182 187 211 202 191 207 215 219 218 219 214 199 200 234 183 183 192 207 256 255 223 232 247 248 231 205 205 212 209 214 221 213 207 202 207 221 221 209 223 238 230 227 226 226 212 171 110 115 132 132 141 135 126 131 127 125 132 141 165 171 178 199 209 214
348 327 318 342 355 332 323 337 29 1 1 355 322 300 299 295 331 347 341 351 324 299 220 203 213 212 209 185 189 209 208 218 230 221 208 189 166 75 134 184 210 199 271 313 243 238 266 269 236 189 194 210 210 212 215 209 213 223 212 211 215 218 236 252 251 230 220 227 212 156 131 140 146 141 154 142 125 127 125 126 130 124 137 157 166 182 197 205
22 37 282 271 295 319 322 325 57 25 343 325 302 286 306 345 6 357 345 352 358 341 360 342 261 250 233 213 208 202 198 209 222 210 196 186 192 174 210 268 264 233 275 300 269 278 288 278 216 180 198 203 198 208 218 212 213 233 220 201 211 222 232 243 250 245 218 227 222 163 145 155 159 148 154 149 136 129 121 123 131 125 121 126 146 168 181 193
50 43 16 241 281 312 319 42 61 328 299 312 315 287 300 19 14 12 6 342 27 19 15 15 222 217 310 271 226 195 199 207 214 213 199 198 219 227 264 261 255 271 286 279 272 290 299 245 216 211 213 201 192 206 216 207 208 231 243 220 227 232 229 225 223 238 242 235 219 169 143 141 154 152 150 143 138 134 123 120 129 135 135 134 144 156 163 178
59 23 322 224 271 298 329 55 307 278 274 287 307 296 306 35 14 8 8 339 13 41 16 356 237 214 73 3 198 204 220 198 198 215 177 181 221 262 275 260 262 279 289 275 264 261 227 226 235 225 214 206 197 204 211 205 207 221 229 222 221 222 231 230 218 222 238 247 231 190 127 102 130 145 143 129 125 128 126 124 128 136 147 155 160 165 164 162
63 9 266 251 277 291 330 354 287 279 280 283 302 334 320 360 1 359 5 353 7 86 351 342 294 186 59 15 20 318 266 167 170 204 165 171 214 256 279 270 266 284 295 265 246 241 238 250 267 235 212 209 208 210 212 212 213 217 220 218 210 211 221 230 222 220 228 249 254 187 130 113 128 140 137 125 124 130 129 125 126 129 146 166 168 171 175 175
49 13 292 288 286 288 323 298 291 289 302 309 326 348 338 330 335 335 332 347 355 357 333 337 80 113 220 272 17 352 276 92 40 349 163 148 199 229 281 294 281 306 306 261 240 242 242 251 274 265 229 211 212 207 202 209 222 225 224 218 209 214 218 216 221 221 222 235 223 122 124 130 132 138 136 132 129 130 129 126 123 121 140 170 168 162 173 181
34 343 317 312 295 94 4 303 309 296 315 336 307 306 359 30 360 349 342 341 346 349 360 126 96 106 194 180 172 290 145 140 52 335 286 354 285 244 270 285 291 343 325 270 273 259 234 231 251 276 283 231 209 195 197 214 233 231 226 217 210 215 227 231 237 242 241 238 167 106 123 146 142 141 142 140 129 122 128 128 121 113 115 150 167 159 160 169
62 313 324 341 70 76 341 312 337 334 335 360 348 356 31 33 19 29 26 10 10 10 17 86 28 315 180 157 179 192 174 175 227 287 266 314 306 275 281 267 259 348 328 246 310 277 225 227 233 252 287 233 202 190 210 226 229 225 220 214 212 219 274 313 289 272 272 272 62 82 112 149 149 147 142 141 130 125 130 124 123 123 118 133 152 148 149 152
84 291 310 349 18 18 341 340 9 18 21 16 39 49 27 353 335 296 33 358 350 360 355 41 30 326 193 176 190 191 204 214 242 273 259 267 285 292 305 271 243 276 267 235 246 253 293 256 235 232 254 244 213 208 234 223 219 224 220 212 214 226 264 319 323 282 261 274 54 96 129 147 149 151 148 145 132 123 121 107 99 102 113 134 142 136 136 137
45 347 283 3 27 32 20 16 5 359 358 339 39 22 9 14 356 327 68 347 305 359 360 341 332 262 217 214 210 205 220 219 226 261 249 247 270 280 293 298 275 263 263 256 245 256 323 282 238 231 255 296 311 298 301 226 211 220 220 211 215 242 258 292 296 287 275 292 79 110 143 151 150 158 154 147 138 127 119 111 103 93 99 123 134 132 132 131
31 339 284 336 27 33 27 27 13 5 12 19 25 356 347 31 18 16 37 349 284 158 351 318 269 257 234 220 218 213 212 208 209 230 229 231 258 268 277 297 300 273 300 316 271 284 297 247 226 216 228 274 314 265 284 270 239 236 223 213 221 256 270 272 255 263 333 340 116 130 152 149 148 158 154 144 139 130 123 118 114 100 85 103 122 131 134 132
16 329 267 287 23 8 17 39 37 30 32 32 34 11 4 50 48 37 35 19 22 113 348 323 137 256 239 214 218 204 188 193 208 207 205 232 258 263 269 281 283 276 302 348 308 267 245 244 238 224 227 232 244 261 266 286 311 276 225 212 220 248 258 261 250 259 310 297 148 144 156 152 151 157 150 143 137 132 135 128 114 103 89 92 105 122 135 138
45 360 302 40 44 13 3 35 43 42 41 50 67 51 35 60 62 30 29 29 40 62 53 81 94 55 111 180 225 170 160 177 224 209 203 227 238 220 244 277 284 275 268 307 313 264 231 246 270 279 259 232 226 256 262 264 321 326 205 192 201 257 259 253 248 255 278 195 153 155 159 156 159 156 141 141 143 133 132 132 123 116 112 104 99 118 138 141
158 161 142 84 56 347 8 23 10 7 25 46 69 54 46 73 79 63 48 47 62 68 69 92 93 75 88 116 103 99 128 146 224 205 197 217 233 214 226 265 284 281 262 258 284 273 248 252 267 287 291 254 224 242 255 255 289 312 179 176 211 260 267 246 240 251 181 152 158 164 158 151 155 153 142 145 152 139 127 131 135 128 115 108 108 124 139 144
179 179 161 129 28 307 353 37 302 265 39 49 55 47 67 86 76 71 60 59 74 76 74 92 95 87 90 103 104 93 100 105 58 180 189 199 256 206 224 253 253 298 285 260 258 257 253 269 268 261 269 258 229 226 243 254 270 269 246 225 226 246 255 241 234 244 228 195 178 169 164 156 147 144 148 150 150 146 136 137 146 137 118 111 128 133 140 151
181 185 165 140 14 312 292 99 312 15 58 328 6 65 90 78 62 130 69 61 91 88 82 94 102 102 109 128 143 124 137 163 136 244 203 198 258 230 246 267 256 253 286 272 257 246 237 259 261 242 254 254 233 215 233 245 253 261 252 236 228 230 236 233 224 225 254 222 185 176 177 170 155 152 161 155 147 157 155 144 156 154 130 110 131 141 150 162
Height
3136 3135 3134 3134 3133 3133 3132 3132 3132 3131 3131 3130 3130 3130 3130 3130 3130 3129 3129 3129 3129 3129 3130 3130 3130 3130 3131 3131 3132 3133 3133 3134 3134 3134 3135 3135 3136 3137 3139 3140 3141 3141 3143 3144 3146 3147 3149 3150 3151 3152 3153 3154 3155 3157 3157 3157 3157 3157 3157 3156 3156 3155 3155 3155 3154 3154 3155 3155 3157 3160 3161 3161 3162 3163 3165 3166 3167 3168 3169 3170 3172 3174 3176 3176 3177 3178 3179 3181
3136 3135 3134 3133 3132 3132 3131 3131 3130 3130 3130 3129 3129 3129 3128 3129 3129 3128 3128 3128 3128 3128 3128 3129 3129 3129 3130 3130 3131 3131 3132 3133 3133 3134 3134 3134 3136 3137 3138 3139 3140 3141 3143 3144 3145 3147 3148 3150 3151 3153 3154 3155 3156 3158 3158 3158 3157 3157 3157 3157 3157 3156 3156 3156 3156 3155 3156 3156 3157 3160 3161 3162 3163 3164 3165 3166 3168 3169 3170 3171 3173 3175 3177 3176 3178 3179 3180 3182
3136 3135 3134 3133 3132 3131 3130 3130 3129 3129 3129 3128 3128 3128 3127 3127 3128 3128 3127 3127 3127 3127 3127 3127 3128 3128 3129 3129 3130 3130 3131 3131 3132 3133 3132 3133 3136 3137 3138 3139 3139 3140 3142 3143 3145 3146 3148 3150 3151 3153 3154 3155 3158 3159 3160 3159 3158 3158 3158 3158 3158 3157 3156 3156 3157 3157 3157 3157 3158 3160 3161 3162 3163 3164 3166 3167 3168 3170 3171 3172 3173 3175 3176 3176 3178 3180 3181 3183
3135 3134 3133 3132 3132 3131 3130 3129 3128 3128 3127 3127 3127 3127 3127 3126 3126 3127 3126 3126 3126 3126 3126 3126 3127 3127 3127 3128 3129 3129 3130 3131 3130 3130 3131 3133 3135 3136 3137 3138 3139 3139 3141 3142 3144 3145 3147 3149 3151 3153 3154 3156 3159 3160 3160 3159 3158 3158 3159 3159 3159 3158 3157 3156 3158 3158 3158 3158 3159 3160 3161 3162 3163 3164 3166 3167 3169 3171 3172 3173 3174 3175 3176 3176 3178 3180 3182 3183
3134 3133 3133 3132 3131 3130 3129 3128 3128 3127 3126 3126 3125 3125 3125 3125 3125 3125 3125 3125 3125 3125 3125 3125 3125 3126 3126 3127 3128 3128 3129 3130 3127 3128 3131 3132 3133 3135 3136 3137 3138 3139 3140 3141 3142 3144 3146 3148 3151 3153 3155 3157 3159 3160 3160 3159 3158 3159 3159 3159 3159 3159 3157 3156 3158 3160 3160 3160 3160 3161 3162 3163 3163 3165 3166 3168 3170 3171 3173 3175 3176 3177 3177 3177 3179 3181 3182 3184
3133 3132 3131 3131 3130 3129 3128 3128 3127 3126 3125 3124 3124 3124 3124 3124 3124 3124 3124 3124 3124 3124 3124 3124 3124 3125 3125 3126 3127 3127 3128 3127 3124 3127 3131 3131 3132 3134 3135 3136 3137 3138 3139 3140 3141 3143 3145 3148 3151 3153 3155 3156 3159 3160 3160 3159 3158 3158 3159 3159 3160 3160 3159 3157 3159 3160 3160 3161 3161 3162 3163 3163 3164 3166 3167 3168 3170 3172 3173 3175 3176 3178 3178 3179 3180 3182 3183 3184
3132 3131 3130 3129 3129 3128 3127 3127 3126 3125 3124 3124 3123 3123 3123 3123 3122 3122 3122 3123 3123 3123 3123 3123 3123 3124 3124 3125 3126 3126 3127 3126 3123 3126 3129 3130 3132 3133 3134 3135 3136 3137 3138 3139 3140 3142 3145 3147 3151 3153 3155 3156 3158 3160 3160 3160 3158 3157 3158 3160 3160 3161 3161 3159 3158 3160 3160 3161 3162 3162 3163 3164 3166 3167 3168 3169 3171 3172 3174 3175 3177 3178 3179 3180 3181 3183 3184 3185
3131 3130 3129 3128 3128 3127 3126 3126 3125 3124 3123 3123 3122 3122 3122 3121 3121 3121 3121 3121 3121 3121 3122 3122 3122 3123 3123 3124 3124 3125 3126 3124 3122 3125 3128 3129 3131 3131 3133 3134 3136 3137 3138 3139 3140 3142 3145 3147 3150 3153 3155 3156 3158 3159 3160 3160 3158 3157 3158 3160 3161 3161 3162 3162 3158 3159 3160 3161 3162 3162 3163 3165 3166 3168 3169 3170 3171 3173 3174 3175 3177 3179 3179 3180 3182 3183 3185 3186
3130 3129 3128 3127 3126 3126 3125 3124 3124 3123 3122 3122 3121 3121 3120 3120 3120 3120 3120 3120 3120 3120 3120 3121 3121 3121 3122 3123 3123 3124 3124 3121 3120 3125 3127 3128 3130 3131 3132 3134 3135 3137 3138 3139 3140 3142 3145 3147 3150 3153 3155 3156 3158 3159 3160 3160 3159 3158 3159 3160 3161 3160 3162 3165 3160 3157 3159 3161 3162 3163 3164 3166 3167 3168 3169 3170 3171 3173 3174 3175 3177 3179 3180 3181 3182 3184 3185 3186
3129 3128 3127 3126 3125 3125 3124 3123 3122 3122 3121 3121 3120 3120 3119 3119 3118 3118 3118 3119 3118 3119 3119 3120 3120 3120 3121 3121 3123 3123 3122 3120 3120 3124 3126 3127 3129 3130 3131 3133 3134 3136 3138 3139 3140 3142 3144 3147 3151 3153 3154 3155 3157 3158 3158 3159 3159 3159 3160 3160 3161 3161 3163 3166 3163 3158 3159 3161 3162 3164 3166 3166 3167 3168 3169 3170 3171 3172 3173 3175 3177 3179 3180 3182 3183 3184 3186 3187
3128 3127 3126 3125 3124 3123 3122 3122 3121 3120 3120 3119 3119 3119 3118 3118 3117 3117 3117 3117 3117 3118 3118 3118 3119 3119 3120 3120 3122 3121 3120 3121 3120 3122 3125 3126 3128 3129 3130 3132 3134 3135 3137 3138 3140 3142 3144 3148 3151 3153 3155 3155 3156 3157 3158 3158 3159 3159 3160 3161 3161 3162 3163 3165 3164 3158 3158 3161 3163 3164 3166 3167 3167 3168 3169 3170 3171 3172 3173 3174 3177 3179 3181 3183 3184 3184 3186 3187
3126 3125 3124 3123 3122 3121 3121 3120 3119 3119 3118 3118 3118 3117 3117 3117 3117 3116 3116 3116 3116 3116 3117 3117 3117 3118 3118 3119 3121 3118 3118 3121 3119 3121 3124 3124 3126 3128 3129 3131 3133 3135 3136 3138 3140 3142 3144 3147 3150 3152 3154 3155 3155 3157 3157 3157 3159 3159 3160 3161 3161 3163 3163 3164 3164 3159 3157 3161 3162 3163 3165 3166 3167 3169 3169 3170 3171 3172 3173 3174 3177 3180 3181 3183 3185 3185 3186 3188
3125 3124 3123 3121 3121 3120 3119 3118 3118 3117 3116 3116 3116 3116 3116 3116 3115 3115 3115 3115 3115 3115 3116 3116 3116 3117 3117 3118 3118 3116 3118 3120 3119 3121 3123 3123 3125 3127 3128 3130 3132 3134 3136 3138 3140 3142 3144 3146 3149 3150 3152 3154 3155 3155 3155 3156 3158 3159 3160 3160 3161 3162 3162 3163 3162 3159 3159 3160 3161 3162 3164 3165 3167 3168 3169 3170 3171 3172 3173 3174 3178 3180 3181 3183 3185 3185 3186 3188
3123 3122 3121 3120 3119 3118 3117 3117 3116 3115 3115 3115 3115 3115 3115 3114 3114 3114 3114 3114 3114 3114 3114 3115 3115 3116 3116 3117 3116 3116 3119 3119 3119 3121 3122 3123 3124 3126 3127 3129 3131 3133 3135 3137 3141 3143 3143 3145 3147 3148 3149 3150 3152 3154 3154 3156 3157 3158 3159 3159 3160 3161 3161 3162 3160 3159 3160 3161 3161 3162 3163 3164 3166 3168 3170 3170 3171 3172 3173 3174 3177 3180 3182 3184 3185 3185 3187 3188
3122 3121 3120 3118 3117 3116 3116 3115 3115 3114 3113 3113 3114 3114 3114 3113 3113 3113 3113 3113 3113 3113 3113 3114 3115 3115 3116 3117 3115 3116 3118 3118 3119 3120 3121 3122 3123 3125 3127 3128 3130 3132 3134 3136 3140 3142 3143 3145 3146 3146 3147 3148 3150 3152 3153 3155 3155 3157 3157 3157 3158 3159 3160 3160 3160 3159 3159 3161 3162 3162 3163 3164 3165 3167 3169 3170 3170 3172 3173 3174 3176 3180 3182 3184 3184 3186 3187 3188
3122 3120 3119 3118 3116 3115 3115 3114 3114 3113 3113 3112 3113 3113 3113 3113 3112 3112 3111 3111 3112 3112 3113 3113 3114 3114 3115 3116 3114 3115 3117 3118 3118 3119 3121 3122 3123 3125 3126 3128 3130 3132 3134 3136 3139 3142 3142 3143 3144 3144 3146 3148 3150 3151 3153 3153 3154 3155 3155 3155 3155 3157 3159 3159 3159 3159 3158 3160 3162 3162 3164 3164 3165 3166 3166 3168 3170 3171 3172 3173 3175 3178 3181 3184 3185 3186 3187 3187
3121 3120 3118 3117 3116 3115 3114 3113 3113 3112 3112 3112 3112 3112 3112 3112 3111 3111 3111 3110 3111 3111 3112 3112 3113 3114 3114 3114 3115 3115 3116 3117 3118 3119 3121 3122 3124 3125 3126 3127 3129 3131 3134 3136 3137 3140 3140 3140 3142 3144 3145 3147 3149 3151 3152 3151 3151 3152 3153 3154 3153 3155 3158 3158 3159 3160 3158 3159 3161 3162 3163 3163 3163 3164 3165 3167 3169 3170 3172 3173 3176 3178 3180 3183 3185 3186 3187 3187
3121 3119 3118 3117 3115 3114 3113 3113 3112 3112 3112 3111 3111 3111 3111 3111 3111 3111 3110 3110 3110 3111 3112 3112 3113 3115 3114 3114 3115 3116 3116 3117 3117 3119 3120 3122 3124 3125 3126 3128 3129 3131 3133 3135 3136 3137 3139 3140 3142 3144 3145 3146 3147 3150 3149 3148 3148 3149 3150 3152 3152 3152 3155 3156 3157 3159 3160 3159 3161 3162 3162 3162 3162 3163 3164 3166 3168 3170 3172 3173 3177 3179 3180 3182 3184 3186 3187 3187
3120 3119 3117 3116 3114 3113 3113 3112 3112 3111 3111 3111 3111 3111 3111 3111 3111 3110 3109 3109 3110 3110 3111 3112 3113 3114 3115 3114 3115 3117 3117 3116 3117 3119 3121 3122 3123 3124 3126 3128 3129 3131 3133 3135 3135 3136 3138 3140 3141 3142 3143 3144 3146 3147 3148 3147 3147 3148 3147 3148 3149 3150 3151 3153 3155 3157 3159 3159 3160 3161 3161 3161 3161 3162 3163 3165 3168 3170 3171 3174 3176 3178 3178 3180 3183 3185 3186 3187
3120 3118 3117 3115 3113 3112 3112 3111 3111 3110 3110 3110 3110 3110 3110 3111 3111 3110 3109 3109 3110 3110 3110 3111 3112 3113 3116 3117 3116 3116 3117 3116 3118 3120 3121 3122 3123 3124 3126 3128 3129 3131 3133 3134 3135 3136 3138 3139 3140 3140 3141 3143 3145 3146 3147 3147 3147 3147 3146 3145 3146 3147 3148 3152 3155 3157 3158 3157 3159 3161 3161 3161 3161 3162 3163 3164 3167 3169 3171 3173 3175 3176 3178 3179 3181 3184 3186 3187
3120 3118 3116 3114 3113 3111 3111 3110 3109 3109 3109 3109 3109 3109 3110 3111 3112 3111 3109 3109 3110 3110 3109 3111 3113 3113 3116 3118 3116 3116 3117 3117 3119 3120 3120 3121 3123 3124 3126 3128 3130 3130 3131 3134 3136 3136 3137 3137 3138 3139 3141 3143 3145 3146 3146 3147 3147 3147 3146 3145 3144 3144 3146 3150 3153 3156 3157 3157 3158 3160 3161 3162 3161 3162 3163 3164 3166 3167 3169 3172 3174 3175 3176 3178 3181 3183 3185 3187
3120 3118 3116 3114 3112 3111 3110 3109 3108 3108 3108 3108 3108 3109 3109 3110 3110 3110 3109 3109 3110 3110 3110 3111 3112 3113 3115 3115 3114 3116 3118 3118 3119 3119 3119 3121 3123 3125 3126 3127 3129 3130 3131 3134 3135 3136 3136 3135 3137 3139 3141 3143 3144 3145 3146 3146 3147 3147 3147 3146 3144 3143 3146 3150 3152 3154 3156 3156 3157 3159 3160 3161 3162 3162 3163 3165 3166 3167 3169 3172 3173 3174 3175 3179 3182 3182 3184 3186
3119 3118 3116 3114 3113 3111 3110 3109 3108 3108 3108 3108 3108 3108 3108 3109 3109 3109 3109 3109 3110 3110 3110 3110 3111 3112 3114 3114 3113 3114 3117 3118 3119 3119 3119 3120 3123 3124 3126 3127 3129 3130 3131 3132 3133 3134 3134 3134 3136 3139 3141 3142 3143 3143 3145 3146 3146 3146 3146 3146 3145 3143 3145 3149 3151 3152 3155 3156 3156 3158 3160 3160 3161 3162 3163 3164 3166 3167 3169 3170 3172 3174 3176 3179 3182 3182 3183 3185
3119 3118 3116 3115 3114 3112 3111 3110 3109 3108 3108 3108 3108 3108 3108 3108 3108 3109 3108 3108 3109 3109 3110 3110 3110 3111 3112 3114 3114 3114 3116 3118 3119 3119 3118 3119 3123 3124 3125 3127 3129 3130 3130 3131 3132 3132 3132 3134 3136 3138 3139 3140 3141 3142 3143 3144 3145 3145 3145 3145 3145 3144 3146 3149 3150 3151 3153 3155 3155 3156 3160 3161 3161 3162 3163 3164 3166 3167 3168 3169 3171 3174 3176 3178 3181 3182 3183 3184
3119 3118 3117 3115 3114 3113 3112 3110 3110 3109 3109 3109 3109 3109 3108 3108 3108 3108 3108 3108 3108 3108 3109 3109 3110 3111 3112 3114 3114 3114 3115 3116 3118 3119 3117 3118 3122 3124 3126 3127 3127 3128 3129 3130 3131 3131 3132 3134 3135 3136 3137 3139 3140 3140 3142 3143 3143 3144 3144 3144 3144 3144 3147 3149 3150 3151 3152 3153 3154 3155 3158 3160 3161 3162 3163 3163 3165 3166 3168 3169 3171 3173 3175 3177 3179 3181 3182 3183
3120 3119 3117 3116 3114 3113 3112 3111 3110 3110 3111 3111 3111 3110 3109 3108 3108 3108 3108 3108 3107 3107 3108 3108 3109 3110 3111 3113 3113 3114 3116 3115 3117 3119 3116 3118 3121 3123 3125 3127 3126 3127 3128 3130 3130 3130 3131 3132 3133 3134 3136 3137 3139 3139 3140 3142 3142 3142 3142 3144 3144 3144 3146 3147 3149 3151 3150 3150 3151 3153 3155 3157 3161 3162 3162 3163 3164 3165 3168 3170 3170 3171 3173 3175 3177 3178 3180 3181
3120 3119 3118 3116 3115 3114 3112 3112 3112 3112 3115 3114 3112 3110 3109 3109 3108 3108 3109 3108 3106 3107 3108 3108 3109 3109 3111 3113 3113 3115 3115 3114 3116 3117 3116 3118 3120 3122 3123 3125 3126 3126 3127 3129 3128 3127 3129 3130 3131 3133 3134 3135 3136 3137 3139 3140 3141 3140 3142 3144 3144 3144 3145 3146 3147 3149 3149 3147 3148 3150 3151 3153 3159 3162 3162 3163 3164 3165 3167 3169 3169 3170 3172 3173 3175 3176 3177 3179
3121 3119 3118 3117 3116 3114 3113 3113 3112 3112 3114 3114 3111 3110 3110 3109 3109 3109 3110 3108 3105 3107 3108 3108 3109 3109 3111 3112 3113 3114 3113 3113 3115 3115 3116 3119 3119 3121 3122 3122 3124 3125 3126 3126 3125 3126 3128 3129 3130 3132 3132 3133 3134 3136 3138 3139 3140 3140 3141 3143 3143 3144 3145 3146 3147 3148 3148 3146 3145 3147 3148 3150 3155 3159 3162 3163 3164 3164 3165 3167 3168 3169 3170 3172 3173 3174 3175 3176
3121 3120 3119 3118 3116 3115 3114 3113 3113 3112 3112 3112 3111 3111 3110 3110 3110 3110 3112 3110 3106 3107 3108 3108 3109 3110 3111 3112 3113 3114 3114 3114 3115 3114 3117 3119 3118 3120 3122 3122 3122 3124 3125 3125 3124 3124 3126 3126 3128 3131 3131 3132 3133 3135 3137 3138 3139 3140 3141 3141 3141 3141 3144 3146 3147 3147 3147 3146 3144 3145 3145 3148 3154 3158 3160 3162 3162 3163 3164 3166 3167 3168 3170 3172 3173 3174 3176 3177
3121 3120 3119 3118 3117 3116 3115 3114 3113 3112 3112 3112 3111 3111 3111 3111 3112 3112 3111 3108 3106 3106 3107 3108 3109 3110 3112 3112 3113 3114 3114 3115 3115 3116 3117 3119 3119 3119 3120 3120 3121 3121 3122 3123 3123 3123 3124 3125 3127 3129 3130 3132 3134 3135 3136 3137 3138 3140 3140 3140 3139 3139 3142 3144 3145 3147 3147 3145 3143 3144 3143 3145 3152 3156 3157 3158 3160 3161 3163 3165 3166 3167 3168 3170 3172 3173 3174 3175
3121 3120 3120 3119 3118 3116 3115 3115 3115 3114 3113 3113 3112 3112 3112 3113 3114 3115 3111 3107 3106 3107 3107 3108 3109 3110 3111 3112 3112 3113 3114 3115 3115 3116 3117 3119 3120 3121 3120 3120 3121 3120 3119 3121 3122 3122 3123 3124 3125 3127 3129 3131 3133 3134 3135 3136 3138 3138 3139 3139 3139 3140 3141 3143 3144 3146 3146 3144 3143 3144 3143 3142 3146 3150 3152 3154 3157 3160 3162 3163 3164 3166 3167 3168 3170 3171 3172 3173
3121 3120 3120 3119 3118 3117 3117 3117 3116 3115 3115 3114 3114 3114 3115 3115 3115 3114 3111 3108 3107 3107 3107 3107 3108 3110 3111 3111 3111 3112 3113 3114 3115 3117 3118 3119 3120 3121 3121 3120 3121 3121 3118 3119 3121 3122 3123 3123 3125 3127 3129 3130 3132 3132 3133 3135 3137 3137 3137 3138 3139 3139 3142 3145 3144 3143 3143 3143 3143 3142 3142 3144 3146 3147 3150 3152 3155 3158 3160 3162 3163 3164 3166 3167 3168 3170 3171 3172
3121 3121 3120 3120 3119 3118 3118 3117 3117 3117 3116 3115 3116 3117 3117 3118 3117 3112 3110 3109 3108 3108 3108 3108 3108 3109 3111 3110 3110 3112 3113 3113 3115 3116 3118 3118 3119 3120 3121 3120 3121 3121 3119 3120 3121 3122 3123 3123 3124 3126 3127 3128 3129 3129 3130 3132 3134 3136 3135 3136 3137 3136 3141 3145 3142 3140 3140 3141 3142 3140 3140 3144 3148 3149 3151 3153 3155 3157 3159 3161 3163 3164 3165 3166 3168 3169 3170 3172
3121 3121 3120 3120 3119 3119 3118 3118 3117 3118 3118 3117 3117 3118 3117 3117 3115 3112 3110 3110 3109 3109 3109 3109 3109 3110 3110 3110 3110 3112 3113 3113 3114 3116 3116 3117 3118 3118 3119 3120 3120 3121 3121 3121 3120 3119 3119 3119 3121 3123 3125 3127 3127 3127 3128 3130 3132 3134 3135 3135 3135 3135 3138 3138 3137 3138 3138 3138 3139 3139 3138 3141 3145 3150 3152 3153 3155 3157 3158 3160 3162 3163 3165 3166 3167 3168 3169 3170
3121 3120 3120 3120 3119 3119 3119 3118 3118 3118 3118 3118 3118 3119 3118 3116 3114 3113 3112 3111 3110 3110 3110 3110 3110 3111 3110 3110 3111 3112 3113 3113 3114 3115 3115 3116 3116 3116 3117 3118 3120 3121 3122 3121 3120 3119 3118 3117 3119 3122 3123 3125 3127 3127 3127 3129 3130 3133 3135 3134 3132 3135 3135 3133 3133 3134 3135 3134 3134 3135 3138 3140 3144 3150 3154 3154 3156 3157 3159 3161 3161 3162 3164 3165 3166 3167 3168 3169
3121 3120 3120 3120 3119 3120 3119 3119 3119 3119 3118 3119 3119 3119 3118 3116 3115 3114 3113 3112 3111 3110 3110 3111 3111 3112 3112 3111 3113 3114 3114 3114 3115 3114 3114 3114 3115 3115 3116 3117 3119 3121 3121 3120 3120 3121 3121 3118 3117 3119 3122 3124 3126 3127 3127 3128 3128 3131 3133 3132 3132 3135 3134 3132 3131 3131 3132 3132 3130 3132 3139 3143 3145 3151 3155 3155 3156 3158 3158 3160 3161 3161 3162 3165 3166 3167 3167 3167
3120 3119 3120 3121 3121 3121 3120 3119 3119 3119 3118 3119 3120 3118 3117 3116 3116 3115 3114 3113 3113 3111 3110 3111 3112 3112 3112 3113 3114 3115 3115 3116 3115 3114 3114 3115 3116 3116 3117 3118 3119 3121 3122 3121 3122 3123 3123 3119 3116 3117 3121 3124 3126 3127 3127 3128 3128 3129 3130 3131 3134 3136 3134 3133 3131 3129 3130 3129 3127 3129 3137 3142 3145 3149 3153 3154 3156 3158 3158 3159 3160 3160 3161 3164 3166 3167 3167 3166
3120 3119 3119 3122 3123 3122 3120 3120 3119 3119 3119 3120 3119 3117 3117 3117 3116 3116 3115 3114 3114 3113 3112 3113 3113 3112 3113 3113 3114 3115 3115 3116 3116 3115 3116 3118 3119 3119 3120 3121 3122 3123 3123 3123 3124 3124 3123 3121 3118 3119 3122 3124 3125 3126 3126 3127 3128 3128 3128 3131 3133 3133 3132 3132 3131 3130 3129 3127 3126 3127 3133 3140 3144 3147 3151 3153 3155 3156 3158 3158 3159 3160 3162 3163 3164 3165 3166 3166
3120 3119 3119 3121 3122 3121 3120 3120 3119 3120 3121 3120 3119 3117 3117 3117 3116 3116 3116 3115 3115 3115 3114 3115 3115 3115 3115 3114 3114 3115 3115 3116 3116 3117 3118 3120 3121 3121 3122 3123 3123 3124 3124 3124 3125 3124 3124 3123 3121 3122 3123 3123 3125 3126 3125 3126 3128 3128 3129 3131 3131 3130 3130 3130 3129 3130 3129 3126 3124 3126 3133 3140 3144 3148 3150 3151 3153 3155 3157 3158 3158 3159 3161 3162 3161 3162 3164 3165
3119 3119 3121 3122 3122 3121 3120 3119 3120 3121 3121 3119 3119 3118 3117 3117 3116 3116 3116 3115 3115 3116 3116 3117 3116 3115 3116 3116 3115 3116 3116 3116 3118 3119 3120 3121 3122 3122 3122 3122 3122 3123 3124 3125 3125 3125 3125 3124 3122 3121 3121 3122 3123 3124 3125 3126 3127 3128 3129 3130 3130 3130 3130 3128 3127 3128 3129 3126 3122 3126 3138 3145 3146 3149 3151 3151 3152 3154 3156 3157 3158 3158 3158 3158 3158 3160 3161 3163
3119 3121 3122 3121 3120 3120 3120 3120 3120 3121 3120 3118 3118 3118 3117 3117 3116 3117 3116 3116 3116 3116 3117 3117 3116 3116 3117 3117 3117 3117 3117 3117 3119 3120 3120 3121 3122 3122 3121 3121 3122 3122 3123 3124 3125 3125 3124 3123 3121 3120 3119 3119 3120 3122 3124 3126 3126 3127 3128 3128 3128 3128 3128 3126 3125 3126 3128 3127 3123 3125 3138 3147 3147 3148 3150 3151 3152 3154 3156 3157 3158 3157 3155 3155 3157 3158 3159 3161
3120 3122 3122 3119 3119 3119 3120 3121 3120 3120 3120 3118 3118 3118 3117 3117 3117 3117 3117 3116 3117 3117 3117 3117 3117 3118 3118 3118 3119 3119 3119 3119 3120 3121 3121 3122 3122 3122 3121 3121 3121 3122 3122 3124 3124 3123 3123 3123 3123 3121 3119 3118 3119 3121 3123 3124 3125 3125 3125 3126 3126 3126 3126 3125 3125 3126 3126 3126 3125 3125 3135 3144 3147 3148 3150 3151 3152 3153 3156 3157 3157 3156 3155 3155 3156 3157 3158 3160
3121 3123 3121 3118 3119 3119 3120 3121 3120 3120 3119 3118 3118 3118 3117 3117 3118 3117 3117 3117 3117 3117 3117 3118 3118 3118 3118 3119 3120 3120 3121 3121 3121 3122 3122 3123 3123 3122 3122 3121 3122 3122 3121 3122 3122 3121 3123 3125 3124 3122 3120 3119 3119 3121 3122 3123 3123 3123 3122 3123 3124 3124 3124 3125 3126 3126 3123 3124 3127 3128 3135 3143 3147 3148 3150 3151 3152 3154 3156 3156 3156 3156 3155 3154 3155 3156 3158 3158
3121 3123 3122 3119 3118 3118 3119 3121 3120 3119 3119 3118 3118 3117 3116 3117 3117 3117 3117 3117 3117 3118 3118 3118 3119 3119 3119 3119 3121 3121 3122 3123 3123 3123 3123 3124 3123 3123 3122 3122 3122 3122 3121 3121 3121 3121 3123 3125 3125 3125 3123 3121 3119 3120 3123 3123 3123 3124 3122 3122 3122 3123 3124 3125 3125 3125 3124 3124 3126 3130 3138 3144 3145 3147 3150 3150 3152 3154 3155 3155 3155 3155 3155 3154 3155 3156 3157 3158
3120 3121 3122 3120 3119 3119 3120 3120 3119 3119 3119 3119 3118 3118 3117 3117 3116 3116 3117 3118 3118 3118 3118 3118 3119 3120 3120 3120 3121 3122 3123 3123 3124 3124 3124 3124 3124 3122 3122 3122 3122 3122 3122 3122 3123 3123 3124 3125 3125 3125 3124 3121 3118 3119 3122 3123 3123 3123 3122 3122 3123 3124 3126 3127 3127 3127 3126 3126 3128 3132 3139 3144 3145 3148 3150 3150 3152 3153 3154 3155 3154 3153 3153 3153 3154 3155 3156 3157
3119 3121 3122 3121 3121 3121 3121 3120 3120 3119 3119 3119 3119 3119 3119 3118 3116 3116 3117 3118 3118 3118 3119 3119 3119 3120 3120 3121 3121 3122 3123 3123 3124 3125 3124 3124 3124 3123 3122 3123 3123 3123 3123 3123 3123 3124 3125 3125 3125 3126 3126 3124 3122 3122 3122 3122 3123 3123 3121 3121 3123 3125 3127 3129 3130 3129 3127 3128 3130 3134 3138 3141 3144 3148 3150 3150 3151 3152 3153 3155 3155 3154 3153 3153 3154 3155 3156 3157
3120 3121 3122 3121 3121 3122 3121 3121 3121 3120 3119 3119 3119 3119 3119 3119 3118 3117 3117 3117 3117 3117 3119 3119 3119 3120 3120 3121 3121 3122 3122 3123 3123 3124 3124 3124 3124 3123 3123 3123 3123 3123 3124 3124 3124 3124 3125 3126 3126 3127 3127 3127 3125 3124 3123 3123 3124 3124 3122 3122 3124 3126 3128 3130 3131 3130 3129 3129 3133 3137 3139 3141 3143 3147 3149 3149 3150 3152 3153 3154 3155 3155 3155 3155 3154 3154 3155 3156
3122 3123 3121 3121 3121 3122 3121 3121 3121 3120 3120 3119 3119 3119 3119 3119 3119 3118 3118 3118 3118 3118 3118 3119 3119 3120 3120 3120 3121 3121 3121 3123 3123 3123 3124 3124 3124 3124 3124 3123 3123 3123 3124 3125 3125 3125 3126 3126 3126 3126 3127 3127 3127 3126 3125 3125 3124 3122 3120 3122 3125 3127 3129 3130 3130 3131 3131 3131 3134 3137 3140 3142 3144 3146 3148 3149 3150 3152 3152 3153 3154 3155 3156 3155 3154 3154 3155 3156
3121 3122 3121 3121 3122 3122 3121 3121 3121 3121 3120 3119 3120 3120 3120 3120 3120 3119 3119 3119 3119 3118 3119 3119 3120 3120 3120 3121 3121 3121 3121 3123 3123 3123 3124 3124 3124 3124 3125 3124 3124 3123 3124 3125 3125 3125 3126 3126 3126 3126 3125 3125 3127 3127 3126 3126 3125 3121 3119 3122 3126 3128 3129 3130 3130 3131 3132 3133 3135 3137 3139 3141 3144 3145 3146 3148 3149 3150 3151 3152 3153 3155 3155 3155 3154 3153 3154 3156
3119 3120 3121 3121 3122 3121 3121 3121 3121 3121 3120 3120 3120 3120 3121 3121 3120 3120 3120 3120 3119 3119 3120 3120 3120 3120 3121 3121 3121 3121 3122 3123 3124 3124 3124 3124 3125 3124 3125 3125 3124 3124 3124 3125 3125 3126 3126 3127 3127 3127 3126 3125 3126 3127 3126 3126 3126 3124 3123 3125 3128 3129 3129 3129 3130 3131 3132 3133 3135 3138 3138 3139 3143 3145 3145 3146 3147 3148 3150 3151 3152 3153 3154 3155 3153 3152 3153 3155
3118 3119 3120 3121 3122 3121 3121 3121 3122 3122 3121 3121 3121 3121 3121 3121 3121 3121 3120 3120 3120 3121 3121 3121 3121 3121 3121 3121 3121 3122 3122 3123 3124 3124 3124 3125 3125 3124 3125 3124 3124 3125 3125 3124 3125 3125 3126 3127 3127 3128 3127 3125 3125 3127 3127 3126 3126 3125 3125 3126 3129 3131 3130 3130 3130 3131 3133 3134 3135 3137 3137 3138 3141 3144 3145 3146 3146 3147 3149 3150 3150 3151 3153 3153 3151 3151 3153 3154
3118 3118 3119 3119 3121 3121 3121 3121 3122 3121 3121 3120 3121 3121 3121 3121 3121 3121 3120 3120 3120 3120 3121 3121 3121 3121 3121 3121 3121 3121 3121 3122 3123 3123 3123 3124 3124 3125 3125 3124 3124 3125 3125 3124 3124 3125 3126 3127 3127 3128 3128 3125 3124 3126 3127 3127 3127 3125 3125 3126 3129 3131 3130 3130 3131 3132 3132 3133 3134 3135 3136 3139 3141 3143 3145 3146 3147 3147 3147 3148 3148 3149 3150 3150 3150 3150 3152 3154